User: anonymous   Login
Location: Utrecht
(52.0907°N, 5.1214°E)
Time: 13:49:55
(UTC+01:00)
Language:

HJ-1B - Orbit

View from above orbital plane
View from above orbital plane
View from above satellite
View from above satellite

Ground track
Ground track

The orbit data is extracted from the following two-line orbital elements,

1 33321U 08041B   22338.10547851  .00000819  00000-0  11906-3 0  9992
2 33321  97.6776   6.9871 0035463  59.7072 300.7651 14.78056096767444
Epoch (UTC): 04 December 2022 02:31:53
Eccentricity: 0.0035463
inclination: 97.6776°
perigee height: 610 km
apogee height: 660 km
right ascension of ascending node: 6.9871°
argument of perigee: 59.7072°
revolutions per day: 14.78056096
mean anomaly at epoch: 300.7651°
orbit number at epoch: 76744

The dashed part of the orbit path shows where the satellite is in the earth's shadow,  

DLR